[[{"header":{"parameterUnit":"m.s-1","parameterCategory":1,"la1":30.2991,"la2":30.254,"lo1":-89.0895,"lo2":-89.0444,"dy":0.0017,"dx":0.0017,"nx":28,"ny":28,"refTime":"2025-11-05T03:00:00:Z","depth":0,"parameterNumber":2,"parameterNumberName":"U-component_of_WINDS"},"data":[0,0,0,0,0,0,0,0,0,0,0,0,0,0,0,0,0,0,0,0,0,0,0,0,0,0,0,0,0,0,0,0,0,0,0,0,0,0,0,0,0,0,0,0,0,0,0,0,0,0,0,0,0,0,0,0,0,0,-1.4126,-1.4127,0,-1.4185,-1.4186,-1.4187,-1.4152,-1.415,-1.4148,-1.4147,-1.421,-1.4213,-1.4216,0,0,0,0,0,0,0,0,0,0,0,0,0,-1.3986,-1.3989,-1.4126,-1.4127,-1.4127,-1.4185,-1.4186,-1.4187,-1.4152,-1.415,-1.4148,-1.4146,-1.4209,-1.4213,-1.4217,0,0,0,0,0,0,0,0,0,0,0,0,0,-1.4046,-1.3989,-1.4126,-1.4117,-1.4117,-1.4185,-1.4186,-1.4187,-1.4152,-1.415,-1.4147,-1.4145,-1.4208,-1.4212,-1.4217,-1.4298,0,0,-1.4232,-1.4234,0,0,0,0,0,0,0,0,-1.4043,-1.4051,-1.4117,-1.4118,-1.4118,-1.4158,-1.416,-1.4224,-1.4153,-1.4139,-1.4147,-1.4144,-1.4195,-1.4201,-1.4218,-1.4301,-1.4304,-1.4233,-1.4236,-1.4238,-1.4239,0,0,0,0,0,0,0,-1.4039,-1.4049,-1.4149,-1.4119,-1.4119,-1.4111,-1.4117,-1.4172,-1.4181,-1.414,-1.4138,-1.4145,-1.4195,-1.4213,-1.4219,-1.4305,-1.4232,-1.4237,-1.424,-1.4242,-1.4459,-1.4462,0,0,0,0,0,0,-1.4035,-1.4045,-1.4148,-1.4151,-1.4073,-1.4116,-1.4122,-1.4148,-1.418,-1.4182,-1.4147,-1.4143,-1.4206,-1.4213,-1.4221,-1.4318,-1.4238,-1.4242,-1.4245,-1.4456,-1.446,-1.4463,0,0,0,0,0,0,-1.4032,-1.4044,-1.4145,-1.4098,-1.411,-1.4121,-1.415,-1.415,-1.4169,-1.4185,-1.4187,-1.4164,-1.4204,-1.4214,-1.4279,-1.432,-1.4244,-1.4249,-1.4453,-1.4457,-1.4461,-1.4513,0,0,0,0,0,0,-1.4028,-1.4043,-1.4073,-1.4099,-1.4113,-1.4202,-1.4153,-1.4153,-1.4177,-1.4172,-1.4201,-1.4204,-1.4203,-1.4272,-1.4284,-1.4325,-1.4253,-1.4449,-1.4455,-1.446,-1.4508,-1.4518,-1.4528,0,0,0,0,0,-1.4023,-1.4086,-1.4075,-1.4087,-1.415,-1.4204,-1.4212,-1.4209,-1.418,-1.4211,-1.4222,-1.4203,-1.4314,-1.4279,-1.4292,-1.4335,-1.4447,-1.4453,-1.4459,-1.4503,-1.4516,-1.4527,0,0,0,0,0,0,-1.4066,-1.4089,-1.4077,-1.415,-1.4175,-1.4198,-1.4236,-1.4223,-1.4257,-1.4252,-1.4247,-1.4254,-1.4322,-1.4335,-1.4297,-1.4416,-1.4376,-1.4385,-1.4405,-1.4417,-1.4427,-1.4422,-1.4257,0,0,0,0,0,-1.4083,-1.4124,-1.4143,-1.4205,-1.4218,-1.4226,-1.4249,-1.4244,-1.4271,-1.4281,-1.4297,-1.4324,-1.4365,-1.4392,-1.443,-1.451,-1.4516,-1.4546,-1.4556,-1.4564,-1.4572,-1.4616,-1.4629,-1.4484,-1.4484,-1.4483,0,0,-1.4121,-1.4138,-1.4165,-1.4214,-1.4233,-1.4277,-1.4235,-1.4282,-1.4315,-1.4289,-1.4351,-1.4364,-1.4394,-1.4467,-1.45,-1.448,-1.4614,-1.4572,-1.4579,-1.4582,-1.4624,-1.4638,-1.465,-1.4488,-1.4487,-1.4486,0,0,-1.421,-1.4228,-1.4282,-1.4302,-1.4331,-1.4336,-1.4349,-1.4374,-1.4381,-1.4444,-1.4426,-1.4465,-1.4535,-1.4557,-1.4578,-1.4678,-1.4662,-1.4691,-1.4743,-1.4786,-1.4797,-1.4807,-1.4843,-1.4856,-1.4699,-1.4699,-1.4699,0,-1.4253,-1.4316,-1.4312,-1.4361,-1.4383,-1.4362,-1.4417,-1.4437,-1.4478,-1.4495,-1.4472,-1.4561,-1.4579,-1.4657,-1.4682,-1.4699,-1.4715,-1.4687,-1.4796,-1.4806,-1.4815,-1.4849,-1.4863,-1.4702,-1.4702,-1.4702,-1.4701,0,-1.4368,-1.4412,-1.4453,-1.4492,-1.4519,-1.4571,-1.4575,-1.4604,-1.4598,-1.4605,-1.467,-1.4692,-1.4735,-1.4753,-1.4747,-1.4831,-1.4818,-1.4796,-1.4755,-1.4832,-1.4864,-1.4877,-1.4707,-1.4706,-1.4705,-1.4704,0,0,-1.4485,-1.4521,-1.4536,-1.4554,-1.4585,-1.462,-1.4672,-1.4713,-1.4738,-1.4768,-1.4811,-1.4872,-1.4852,-1.4876,-1.4873,-1.491,-1.4988,-1.4884,-1.4884,-1.4902,-1.5082,-1.5098,-1.5113,-1.4979,-1.4981,-1.4983,-1.508,0,-1.4576,-1.4665,-1.4663,-1.4746,-1.4788,-1.4769,-1.4814,-1.4839,-1.4848,-1.4885,-1.4895,-1.4938,-1.4908,-1.4923,-1.4959,-1.4971,-1.5024,-1.4964,-1.502,-1.5022,-1.5012,-1.513,-1.5147,-1.5237,-1.5092,-1.5094,-1.5096,0,-1.4694,-1.4727,-1.4814,-1.484,-1.4858,-1.4898,-1.4936,-1.4972,-1.5001,-1.5005,-1.5031,-1.5023,-1.5077,-1.5035,-1.511,-1.5069,-1.5092,-1.5102,-1.5105,-1.511,-1.5063,-1.5137,-1.5265,-1.5279,-1.5115,-1.5114,-1.5112,0,-1.4771,-1.4837,-1.4898,-1.4914,-1.4945,-1.4975,-1.4989,-1.5015,-1.5041,-1.5075,-1.5091,-1.5131,-1.5153,-1.5185,-1.5188,-1.5158,-1.5264,-1.5223,-1.5269,-1.5269,-1.5292,-1.529,-1.5425,-1.5307,-1.5307,-1.5307,-1.5307,0,-1.4873,-1.4927,-1.4932,-1.497,-1.503,-1.5028,-1.5089,-1.5101,-1.5124,-1.5165,-1.5152,-1.519,-1.5192,-1.5232,-1.5235,-1.5296,-1.5307,-1.5312,-1.5312,-1.5313,-1.5312,-1.5327,-1.5321,-1.5311,-1.531,-1.5309,-1.5308,0,-1.4968,-1.4974,-1.5039,-1.5064,-1.5071,-1.5115,-1.5137,-1.5173,-1.5181,-1.5232,-1.5244,-1.5257,-1.5303,-1.531,-1.5364,-1.5367,-1.5441,-1.5434,-1.5431,-1.543,-1.5476,-1.5471,-1.5624,-1.5644,-1.5514,-1.5516,-1.5517,0,-1.5032,-1.5073,-1.5103,-1.5128,-1.5145,-1.5186,-1.5212,-1.5212,-1.524,-1.5276,-1.5308,-1.5353,-1.5389,-1.5464,-1.5479,-1.5521,-1.5515,-1.5566,-1.5521,-1.5521,-1.5516,-1.5513,-1.5517,-1.5574,-1.5576,-1.5577,-1.5578,0,-1.5146,-1.5147,-1.5184,-1.5222,-1.5253,-1.5284,-1.5313,-1.5335,-1.5339,-1.5371,-1.5418,-1.5445,-1.5501,-1.5546,-1.5588,-1.5604,-1.5593,-1.5592,-1.5605,-1.5606,-1.5602,-1.5605,-1.5454,-1.5588,-1.5587,-1.5586,-1.5586,-1.5586,-1.5227,-1.5263,-1.529,-1.5332,-1.5353,-1.5381,-1.5416,-1.5429,-1.5467,-1.5512,-1.551,-1.5562,-1.5591,-1.5645,-1.5665,-1.5706,-1.569,-1.5709,-1.5713,-1.5718,-1.5722,-1.5596,-1.5714,-1.5714,-1.5713,-1.5713,-1.5713,0,-1.534,-1.5356,-1.5395,-1.5436,-1.5469,-1.5454,-1.5486,-1.5515,-1.556,-1.5588,-1.5624,-1.5678,-1.5722,-1.5741,-1.5784,-1.5814,-1.5809,-1.5825,-1.5823,-1.5827,-1.5735,-1.5719,-1.5828,-1.5828,-1.5828,-1.5828,-1.5828,-1.5828,-1.5403,-1.5463,-1.5467,-1.5538,-1.5555,-1.5604,-1.5624,-1.5649,-1.5671,-1.5732,-1.5768,-1.578,-1.5805,-1.585,-1.589,-1.5895,-1.5911,-1.593,-1.5932,-1.5845,-1.5833,-1.5822,-1.5807,-1.5933,-1.5933,-1.602,-1.6021,-1.6022]},{"header":{"parameterUnit":"m.s-1","parameterCategory":1,"la1":30.2991,"la2":30.254,"lo1":-89.0895,"lo2":-89.0444,"dy":0.0017,"dx":0.0017,"nx":28,"ny":28,"refTime":"2025-11-05T03:00:00:Z","depth":0,"parameterNumber":3,"parameterNumberName":"V-component_of_WINDS"},"data":[0,0,0,0,0,0,0,0,0,0,0,0,0,0,0,0,0,0,0,0,0,0,0,0,0,0,0,0,0,0,0,0,0,0,0,0,0,0,0,0,0,0,0,0,0,0,0,0,0,0,0,0,0,0,0,0,0,0,1.1453,1.1453,0,1.1511,1.1512,1.1513,1.1581,1.1582,1.1583,1.1584,1.164,1.164,1.1641,0,0,0,0,0,0,0,0,0,0,0,0,0,1.1395,1.1396,1.1452,1.1453,1.1454,1.1511,1.1512,1.1513,1.1581,1.1582,1.1583,1.1585,1.164,1.164,1.1641,0,0,0,0,0,0,0,0,0,0,0,0,0,1.1434,1.1396,1.1452,1.1495,1.1499,1.1511,1.1512,1.1513,1.1581,1.1582,1.1584,1.1585,1.164,1.164,1.1641,1.1614,0,0,1.1643,1.1644,0,0,0,0,0,0,0,0,1.1431,1.1436,1.1488,1.1492,1.1497,1.1541,1.1513,1.1547,1.158,1.155,1.1584,1.1586,1.1605,1.1609,1.1616,1.1617,1.1619,1.1643,1.1644,1.1644,1.1644,0,0,0,0,0,0,0,1.1429,1.1433,1.1476,1.1489,1.1494,1.151,1.1517,1.1519,1.1568,1.1552,1.1558,1.1564,1.1608,1.1615,1.1618,1.162,1.1643,1.1644,1.1645,1.1645,1.1602,1.16,0,0,0,0,0,0,1.142,1.1431,1.1474,1.1477,1.1468,1.151,1.1518,1.1525,1.1568,1.1576,1.1562,1.1567,1.1613,1.1617,1.162,1.1592,1.1644,1.1645,1.1645,1.1603,1.1601,1.16,0,0,0,0,0,0,1.1419,1.1423,1.1471,1.1456,1.1463,1.1509,1.1517,1.1525,1.1533,1.1576,1.1584,1.1561,1.1615,1.1619,1.1616,1.1595,1.1645,1.1646,1.1605,1.1603,1.1601,1.1534,0,0,0,0,0,0,1.1417,1.1422,1.1413,1.1455,1.1464,1.1466,1.1515,1.1525,1.1535,1.1541,1.1577,1.1584,1.1616,1.1614,1.1616,1.1597,1.1647,1.1607,1.1604,1.1601,1.1539,1.153,1.1523,0,0,0,0,0,1.1414,1.1391,1.1413,1.1417,1.1454,1.1465,1.147,1.1509,1.1533,1.1523,1.1551,1.1583,1.1597,1.1613,1.1616,1.1596,1.1609,1.1605,1.1602,1.1542,1.1532,1.1523,0,0,0,0,0,0,1.1344,1.1398,1.1422,1.1412,1.1434,1.1477,1.1466,1.1496,1.1511,1.1516,1.1562,1.1569,1.156,1.1578,1.1595,1.1573,1.1608,1.1604,1.1561,1.1552,1.1544,1.1539,1.1647,0,0,0,0,0,1.1328,1.1334,1.138,1.1367,1.1377,1.1419,1.1426,1.1454,1.1478,1.1487,1.1515,1.1535,1.1545,1.1549,1.156,1.1542,1.155,1.153,1.1522,1.1515,1.1511,1.1503,1.1494,1.1588,1.1588,1.1588,0,0,1.1294,1.1324,1.1324,1.1353,1.1374,1.1378,1.1427,1.1429,1.1432,1.1487,1.1486,1.1506,1.1533,1.1522,1.1518,1.1536,1.1488,1.1511,1.1505,1.1505,1.1498,1.1489,1.1482,1.1585,1.1586,1.1586,0,0,1.1233,1.1257,1.1248,1.1268,1.1299,1.1328,1.1326,1.1365,1.1381,1.1381,1.1422,1.1426,1.1441,1.1458,1.1469,1.1416,1.1446,1.1419,1.1376,1.1367,1.136,1.1354,1.1334,1.1327,1.1415,1.1415,1.1415,0,1.1186,1.1196,1.124,1.124,1.1251,1.1303,1.1294,1.1311,1.1343,1.1349,1.137,1.139,1.1411,1.1405,1.1392,1.1399,1.1398,1.1414,1.1358,1.1352,1.1347,1.1328,1.1321,1.1411,1.1412,1.1412,1.1412,0,1.1136,1.1142,1.1131,1.1162,1.1173,1.1168,1.1211,1.1216,1.1243,1.127,1.1268,1.1296,1.1313,1.1314,1.1341,1.1312,1.1322,1.135,1.1385,1.1333,1.1317,1.131,1.1406,1.1407,1.1408,1.1409,0,0,1.1031,1.1088,1.1083,1.1099,1.1137,1.1142,1.114,1.1159,1.1161,1.1182,1.118,1.1193,1.1219,1.1231,1.1259,1.1252,1.1208,1.1281,1.1282,1.1265,1.1177,1.1155,1.1146,1.1229,1.1227,1.1226,1.1174,0,1.0976,1.0977,1.1018,1.1006,1.1012,1.1062,1.106,1.1083,1.1108,1.1115,1.1142,1.115,1.1184,1.1192,1.1187,1.1214,1.119,1.1219,1.1226,1.1226,1.1217,1.1138,1.1115,1.1064,1.1168,1.1167,1.1166,0,1.0912,1.0931,1.0921,1.0961,1.0965,1.0962,1.0983,1.099,1.1017,1.1035,1.1049,1.1083,1.1082,1.1117,1.1116,1.1135,1.114,1.1154,1.1153,1.1154,1.1192,1.1135,1.1049,1.104,1.1157,1.1158,1.1158,0,1.0836,1.0859,1.0856,1.0867,1.0913,1.091,1.0929,1.0958,1.0967,1.0984,1.0991,1.1007,1.1016,1.1028,1.1064,1.1086,1.1059,1.1097,1.1073,1.1072,1.1064,1.1064,1.0976,1.107,1.107,1.107,1.107,0,1.077,1.0761,1.0822,1.082,1.0812,1.0858,1.0848,1.0872,1.0897,1.09,1.0944,1.0945,1.0994,1.1001,1.1029,1.1024,1.1028,1.1042,1.1049,1.1037,1.1035,1.104,1.1044,1.1068,1.1068,1.1069,1.1069,0,1.0682,1.0723,1.0723,1.0767,1.0778,1.077,1.0808,1.0807,1.0836,1.0838,1.0841,1.0885,1.0895,1.0934,1.0952,1.0972,1.0956,1.0972,1.0948,1.0952,1.0926,1.0928,1.0837,1.0827,1.0928,1.0927,1.0926,0,1.0637,1.0632,1.0677,1.0682,1.07,1.0708,1.0718,1.0764,1.0772,1.0803,1.0798,1.0812,1.0825,1.0839,1.0871,1.0886,1.0901,1.0869,1.0903,1.0891,1.0899,1.0899,1.0898,1.086,1.0859,1.0858,1.0857,0,1.0552,1.0572,1.0586,1.0606,1.0617,1.0635,1.0655,1.0657,1.0707,1.0714,1.0726,1.0736,1.0757,1.0769,1.079,1.0808,1.084,1.0846,1.0841,1.0828,1.0814,1.082,1.0926,1.0848,1.0848,1.0849,1.085,1.085,1.0483,1.0481,1.0513,1.0526,1.0546,1.0565,1.0566,1.0596,1.0607,1.0628,1.0654,1.0662,1.0689,1.072,1.0736,1.0742,1.076,1.0753,1.0752,1.0749,1.0743,1.0814,1.0746,1.0747,1.0747,1.0747,1.0748,0,1.04,1.0423,1.0435,1.0463,1.0473,1.0505,1.0529,1.0535,1.0543,1.0566,1.0579,1.0592,1.0605,1.064,1.0656,1.0654,1.0669,1.0657,1.0656,1.066,1.0726,1.0728,1.0644,1.0644,1.0644,1.0644,1.0644,1.0644,1.0357,1.0355,1.038,1.0388,1.0412,1.0421,1.0432,1.0449,1.0468,1.0481,1.0493,1.0516,1.0544,1.0563,1.0576,1.0585,1.0589,1.0571,1.0585,1.0645,1.0655,1.0665,1.0667,1.0571,1.0571,1.0518,1.0518,1.0518]}]]